Location: De Wind
(51.5744°N, 5.6823°E)
Time: 20:23:58
(UTC+00:00)

Daily predictions for brighter satellites

Satellite Brightness Start Highest point End
(mag) Time Altitude Azimuth Time Altitude Azimuth Time Altitude Azimuth
GEOS 3 Rocket 4.1 20:33:54 10° NE 20:38:59 40° ESE 20:44:02 10° SSW
SL-16 R/B 3.4 20:39:29 10° SW 20:45:00 50° NW 20:50:32 10° NNE
Cosmos 1315 Rocket 3.4 20:41:30 10° N 20:45:29 47° ENE 20:49:28 10° SSE
Spot 2 Rocket 3.7 20:41:04 10° S 20:46:09 75° WSW 20:51:18 10° NNW
IGS 5A 3.7 20:43:47 10° S 20:47:56 73° WSW 20:52:07 10° NNW
ATLAS 5 CENTAUR R/B 1.5 20:48:38 10° SW 20:52:50 77° SE 20:57:38 10° NE
Cosmos 2278 Rocket 2.8 20:47:27 10° NNW 20:53:00 51° NE 20:58:30 10° SE
CARTOSAT-1 3.6 20:50:10 10° SSE 20:54:28 71° ENE 20:58:47 10° N
Cosmos 1844 Rocket 3.5 20:49:48 10° NW 20:55:06 46° WSW 21:00:22 10° S
USA 81 4.3 20:50:03 10° SSE 20:55:09 54° E 21:00:19 10° NNE
Cosmos 1943 Rocket 4.5 20:51:49 10° NNW 20:55:27 17° NNE 20:59:04 10° ENE
USA 267 3.5 20:51:28 10° ESE 20:58:01 76° NNE 21:04:35 10° WNW
Cosmos 1709 Rocket 4.1 20:52:16 10° S 20:58:35 82° E 21:05:00 10° NNE
Meteor 1-11 4.3 20:59:20 10° S 21:04:56 72° E 21:10:39 10° NNE
Cosmos-2242 3.9 21:02:04 10° NNW 21:06:15 47° W 21:10:27 10° SSW
SPOT 1/Viking Rocket 3.9 21:01:45 10° S 21:06:52 65° WSW 21:12:02 10° NNW
Cosmos 1400 Rocket 3.9 21:03:14 10° NNW 21:07:00 41° W 21:10:42 10° SSW
Cosmos 2221 3.0 21:07:05 10° N 21:11:23 50° ENE 21:15:14 12° SSE
Lacrosse 5 rocket 2.9 21:10:31 10° WNW 21:14:29 38° N 21:18:14 10° ENE
Cosmos 2184 Rocket 4.5 21:09:05 10° SSE 21:14:58 46° E 21:20:57 10° NNE
Resurs 01 Rocket 3.9 21:13:19 10° SW 21:16:33 20° W 21:19:49 10° NW
SAR-Lupe-2 3.6 21:14:22 10° NNE 21:17:59 83° WNW 21:21:35 10° SSW
Terra 1.8 21:14:58 11° SSE 21:19:32 80° ENE 21:24:19 10° NNW
TSX-5 3.6 21:23:19 10° NNW 21:26:44 77° ENE 21:30:04 15° SE
NOSS 3-4 (A) 4.0 21:21:46 10° NW 21:28:36 75° NE 21:36:04 10° SE
NOSS 3-4 (C) 4.0 21:21:53 10° NW 21:28:42 75° NE 21:36:11 10° SE
Cosmos 2058 3.7 21:27:38 14° SSE 21:30:39 34° E 21:34:26 10° NNE
Cosmos 2322 Rocket 4.2 21:26:52 10° WSW 21:31:50 31° NW 21:36:51 10° NNE
NOSS 3-3 (A) 3.9 21:34:15 10° SSW 21:40:08 73° SE 21:46:53 10° NE
NOSS 3-3 (C) 3.9 21:34:20 10° SSW 21:40:15 72° SE 21:47:00 10° NE
Cosmos 1825 3.9 21:39:57 14° SE 21:41:53 20° E 21:44:40 10° NE
Cosmos 2369 Rocket 4.2 21:39:51 10° NNW 21:44:05 21° NE 21:48:18 10° E
JB-3 4.5 21:41:26 10° NNE 21:45:13 53° E 21:48:04 16° S
Aureole 2 Rocket 3.9 21:44:36 10° N 21:46:51 21° NE 21:48:50 12° ESE
Cosmos 1980 4.1 21:41:49 11° S 21:46:53 44° ESE 21:52:13 10° NE
Cosmos 1538 Rocket 4.2 21:42:08 10° SSW 21:47:30 81° WNW 21:52:52 10° NNE
Meteor 2-17 Rocket 4.5 21:43:28 12° S 21:49:02 66° E 21:55:03 10° NNE
Nadezhda 3 Rocket 4.2 21:43:46 10° N 21:50:10 69° ENE 21:55:18 16° SSE
Cosmos 1076 Rocket 3.8 21:47:32 17° SSE 21:50:38 49° E 21:54:47 10° NNE
COSMOS 2455 4.1 21:45:54 10° NNW 21:51:29 36° NE 21:57:02 10° ESE
COSMOS 2428 2.8 21:48:31 10° SSW 21:54:11 82° WNW 21:59:55 10° NNE
Cosmos 2154 Rocket 4.2 21:49:47 15° SSE 21:54:56 58° E 22:01:02 10° NNE
ATLAS 2AS CENTAUR R/B 2.9 21:48:50 10° NW 21:56:34 89° SW 22:02:39 15° SE
Cosmos 2151 4.2 21:55:43 17° SE 21:58:06 28° E 22:01:45 10° NNE
Thor Agena Rocket 4.2 21:53:28 10° NNE 21:58:14 38° E 22:01:29 18° SSE
ATLAS CENTAUR R/B 2.8 21:55:53 10° WNW 21:58:45 22° WSW 22:00:56 13° SSW
Cosmos 1869 3.8 21:55:32 10° NNW 21:59:26 55° W 22:02:34 15° S
Cosmos 2074 Rocket 4.0 21:54:39 10° S 22:00:54 87° W 22:07:10 10° N
BREEZE-M DEB (TANK) 1.9 21:56:39 10° W 22:01:37 58° SSW 22:03:23 18° ESE
ERS-1 Rocket 4.4 21:57:24 10° SSW 22:01:53 32° W 22:06:24 10° NNW
Cosmos 1842 Rocket 4.4 21:58:47 10° NNW 22:02:57 45° W 22:06:35 13° SSW
Genesis I 3.9 22:00:58 20° S 22:03:02 33° ESE 22:06:34 10° ENE
Cosmos 2237 Rocket 2.4 21:59:39 12° S 22:04:51 56° ESE 22:10:26 10° NE
Cosmos 1371 Rocket 4.1 21:59:39 10° NNW 22:04:56 77° ENE 22:08:51 19° SSE
Cosmos 2219 Rocket 2.6 22:00:16 10° SW 22:05:48 64° NW 22:11:25 10° NNE
USA 215 3.2 22:00:27 10° ENE 22:07:01 69° SE 22:13:32 10° SW
SPOT 5 4.3 22:02:46 10° SSW 22:07:14 32° W 22:11:30 10° NNW
Cosmos 2360 Rocket 4.2 22:04:03 10° WSW 22:09:02 31° NW 22:14:03 10° NNE
Spot 4 4.0 22:06:50 19° SSE 22:10:14 66° ENE 22:14:59 10° N
Cosmos 2344 3.9 22:05:03 10° S 22:11:58 45° ESE 22:19:29 10° NE
Cosmos 1151 Rocket 4.2 22:09:02 10° N 22:12:58 32° ENE 22:15:44 16° SE
Cosmos 158 Rocket 3.9 22:09:32 16° S 22:13:16 58° ESE 22:18:06 10° NNE
Cosmos 2112 Rocket 4.2 22:12:33 16° S 22:16:46 60° ESE 22:22:04 10° NNE
GEOS 3 Rocket 4.4 22:11:52 10° NE 22:17:09 58° NW 22:22:27 10° WSW
CZ-4C R/B 3.9 22:11:01 10° NW 22:17:18 43° NNE 22:24:41 10° E
ATLAS 5 CENTAUR R/B 4.3 22:19:16 10° NNW 22:20:01 11° N 22:20:49 10° NNE
Cosmos 2333 Rocket 3.1 22:14:34 10° SW 22:20:07 51° NW 22:25:43 10° NNE
ALOS 2 3.3 22:18:57 18° SE 22:21:51 44° ENE 22:26:03 10° N
Cosmos 2327 Rocket 4.5 22:17:24 14° S 22:22:54 86° W 22:29:04 10° N
Iridium 2 3.6 22:19:44 10° N 22:23:36 89° WSW 22:25:48 24° S
EO 1 Del DPAF 3.4 22:24:17 10° NNE 22:28:00 55° E 22:29:55 26° S
Cosmos 2056 Rocket 3.6 22:23:21 10° NNW 22:28:47 82° WSW 22:32:26 22° SSE
Cosmos 1892 3.2 22:26:25 16° SSW 22:29:21 56° WNW 22:33:08 10° N
NOSS 0 Rocket 4.0 22:23:51 10° SSW 22:30:01 86° WNW 22:36:15 10° NNE
GP-B 3.8 22:26:25 10° NNE 22:30:38 41° E 22:33:05 22° SE
Cosmos 1295 Rocket 4.4 22:29:34 17° S 22:34:25 86° E 22:40:33 10° N
Cosmos 1606 3.0 22:31:31 10° N 22:35:22 57° ENE 22:37:25 25° SSE
Cosmos 2278 Rocket 3.2 22:31:50 10° NW 22:36:55 35° WSW 22:40:40 17° SSW
ATLAS 5 CENTAUR R/B 3.8 22:34:00 10° W 22:37:58 31° NNW 22:42:29 10° NE
Cosmos 2297 3.7 22:34:05 10° NNW 22:39:52 87° ENE 22:43:52 21° SSE
Cosmos 1408 2.7 22:37:56 22° SSW 22:40:08 66° WNW 22:43:43 10° N
Cosmos 1943 Rocket 2.9 22:35:04 10° NNW 22:40:37 51° NE 22:45:30 13° SE
USA 267 3.5 22:36:39 19° SSE 22:41:17 51° SW 22:47:40 10° WNW
MOS 1-B Rocket 4.4 22:33:34 10° NNE 22:41:26 76° ESE 22:46:38 18° S
Cosmos 44 3.6 22:40:51 25° SSE 22:42:38 37° ESE 22:46:45 10° NE
Gbstr 26 Del rocket 4.5 22:44:20 17° ESE 22:44:20 17° ESE 22:46:12 10° E
Cosmos 1680 Rocket 3.7 22:39:45 11° SSW 22:44:49 77° WNW 22:50:11 10° NNE
Cosmos 371 Rocket 3.4 22:43:23 10° NNW 22:48:17 75° ENE 22:51:21 23° SSE
SL-16 R/B 2.6 22:46:35 22° S 22:49:57 48° ESE 22:55:25 10° NE
APEX 2.8 22:50:09 10° NNW 22:52:51 53° NE 22:53:52 31° ESE
CREW DRAGON DEMO-1 DEB 3.1 22:53:16 38° S 22:53:48 43° SSE 22:56:44 10° E
Lacrosse 5 rocket 1.9 22:50:09 10° WNW 22:54:11 54° NNE 22:57:59 10° E
Cosmos 405 4.4 22:51:11 10° N 22:54:19 29° ENE 22:56:11 18° ESE
Cosmos 1452 Rocket 3.7 22:50:28 10° NNW 22:55:44 68° ENE 22:59:20 20° SE
Cosmos 1515 Rocket 4.1 22:53:25 10° N 22:57:40 49° ENE 23:00:08 23° SE
Terra 4.1 22:55:01 10° SW 22:57:53 16° W 23:00:47 10° NW
IRIDIUM 114 4.4 22:59:06 24° S 23:02:15 70° E 23:07:28 10° N
Cosmos 1328 Rocket 3.5 22:59:31 10° N 23:03:52 89° E 23:06:06 28° S
Cosmos 1766 Rocket 3.5 23:01:32 26° S 23:03:55 81° E 23:08:22 10° NNE
Okean 3 Rocket 3.6 23:07:35 24° SSW 23:10:12 79° W 23:14:39 10° N
IRIDIUM 103 4.3 23:08:14 25° S 23:11:22 83° E 23:16:38 10° N
EP 3 4.1 23:15:26 57° NNE 23:15:26 57° NNE 23:17:09 10° NE
Meteor 2-3 Rocket 3.9 23:12:54 24° S 23:16:19 64° E 23:21:58 10° NNE
Cosmos 1340 2.7 23:15:33 33° S 23:17:06 69° E 23:20:52 10° NNE
Cosmos 1825 3.2 23:14:44 18° SW 23:17:08 40° WNW 23:20:44 10° N
Cosmos 2228 Rocket 3.9 23:14:13 10° N 23:18:40 47° ENE 23:21:26 21° SE
Aureole 2 Rocket 3.5 23:18:02 10° NW 23:20:25 24° WSW 23:20:49 23° WSW
Cosmos 2218 Rocket 4.0 23:17:44 22° S 23:22:01 87° E 23:28:21 10° N
Meteor 1-26 Rocket 4.4 23:18:36 10° NNW 23:24:39 83° W 23:28:23 24° S
Cosmos 2366 rocket 4.0 23:21:57 22° S 23:26:14 89° E 23:32:37 10° N
Cosmos 2369 Rocket 2.3 23:23:27 10° NNW 23:29:05 75° ENE 23:33:19 18° SE
IRIDIUM 106 4.4 23:26:31 24° SSW 23:29:43 72° W 23:34:58 10° N
Cosmos 1743 Rocket 4.0 23:29:40 27° SSE 23:31:42 51° E 23:35:56 10° NNE
Cosmos 304 Rocket 3.7 23:27:17 10° NNW 23:32:10 89° ENE 23:35:00 25° SSE
SL-4 R/B 1.3 23:33:31 39° WNW 23:33:31 39° WNW 23:35:12 10° NNW
Cosmos 1933 4.0 23:29:54 10° NNW 23:33:46 45° W 23:35:34 27° SSW
Cosmos 2151 4.2 23:32:17 15° SW 23:35:17 35° WNW 23:39:14 10° N
YAOGAN 11 4.1 23:33:15 28° SSE 23:35:35 88° ENE 23:40:02 10° NNW
Helios 1A 2.9 23:34:08 30° S 23:36:07 75° WSW 23:40:16 10° NNW
COSMOS 2455 2.9 23:31:51 10° NW 23:37:52 68° WSW 23:41:47 22° SSE
Cosmos 1656 Rocket 4.3 23:33:51 10° NNW 23:39:10 51° NE 23:44:26 10° SE
Genesis I 4.5 23:36:52 10° WSW 23:40:34 40° NW 23:44:17 10° NNE
ATLAS 2AS CENTAUR R/B 4.0 23:40:44 10° WNW 23:46:36 26° WSW 23:50:03 18° SSW
Cosmos 1812 3.7 23:45:30 10° N 23:49:10 39° ENE 23:51:25 20° SE
Cosmos 2237 Rocket 3.7 23:44:01 10° WSW 23:49:13 35° NW 23:54:27 10° NNE
USA 215 3.7 23:43:33 10° ENE 23:50:03 65° NNW 23:56:31 10° W
Cosmos 1151 Rocket 4.2 23:46:38 10° NNW 23:50:29 31° W 23:52:34 20° SW
Cosmos 1782 2.9 23:47:25 10° NNW 23:51:22 66° W 23:53:04 32° S
CZ-2D R/B 4.3 23:50:20 10° NE 23:53:15 15° E 23:56:10 10° ESE
Cosmos 1408 Rocket 4.0 23:52:07 24° SW 23:54:36 54° WNW 23:58:58 10° N
